Location: Kerb�bon
(47.7970°N, 3.3487°W)
Time: 11:42:19
(UTC+00:00)

BREEZE-M DEB (TANK) - Pass Details

Date: 12 May 2021
Orbit: 277 x 16788 km, 49.5° (Epoch: 18 June)

Event Time Altitude Azimuth Distance (km) Brightness Sun altitude
Rises 21:31:20 0° 284° (WNW) 2,182 6.3 -14.9°
Reaches altitude 10° 21:33:17 10° 286° (WNW) 1,135 4.8 -15.1°
Maximum altitude 21:35:16 72° 12° (NNE) 304 1.1 -15.3°
Enters shadow 21:35:48 44° 84° (E) 425 1.5 -15.4°
